IRIDIUM 106 1 41917U 17003A 26125.39715613 -.00000018 00000+0 -13446-4 0 9996 2 41917 86.3933 106.4470 0002418 80.0312 280.1156 14.34217280487078 IRIDIUM 103 1 41918U 17003B 26125.38447095 .00000015 00000+0 -18403-5 0 9997 2 41918 86.3932 106.3521 0002437 94.2070 265.9404 14.34217411487098 IRIDIUM 109 1 41919U 17003C 26125.39081382 -.00000019 00000+0 -14000-4 0 9995 2 41919 86.3933 106.4082 0002200 89.3663 270.7785 14.34217028487061 IRIDIUM 102 1 41920U 17003D 26125.42886729 .00000072 00000+0 18594-4 0 9998 2 41920 86.3932 106.3169 0002233 86.2477 273.8974 14.34218188487154 IRIDIUM 105 1 41921U 17003E 26125.38750002 .00000300 00000+0 99771-4 0 9998 2 41921 86.3955 74.7619 0001008 113.4568 246.6734 14.34286679489009 IRIDIUM 104 1 41922U 17003F 26125.37178007 .00000167 00000+0 52395-4 0 9999 2 41922 86.3931 106.3825 0002258 95.0295 265.1158 14.34219572487131 IRIDIUM 114 1 41923U 17003G 26125.37812895 -.00000033 00000+0 -19022-4 0 9994 2 41923 86.3932 106.3634 0002219 92.5992 267.5458 14.34216997487119 IRIDIUM 108 1 41924U 17003H 26125.40641759 .00000062 00000+0 14990-4 0 9997 2 41924 86.3949 74.6454 0002157 83.3741 276.7700 14.34217886488971 IRIDIUM 112 1 41925U 17003J 26125.43520882 .00000115 00000+0 33828-4 0 9994 2 41925 86.3928 106.1834 0002228 90.9213 269.2238 14.34218761487143 IRIDIUM 111 1 41926U 17003K 26125.42252352 -.00000073 00000+0 -33074-4 0 9996 2 41926 86.3931 106.2584 0002361 89.2866 270.8600 14.34217081487127 IRIDIUM 113 1 42803U 17039A 26125.47225623 .00000157 00000+0 49149-4 0 9997 2 42803 86.3976 340.0409 0002103 92.6955 267.4481 14.34219211465061 IRIDIUM 123 1 42804U 17039B 26125.44396906 .00000074 00000+0 19376-4 0 9995 2 42804 86.4009 11.5021 0002331 85.5858 274.5605 14.34218134463828 IRIDIUM 120 1 42805U 17039C 26125.32637935 .00000003 00000+0 -59352-5 0 9995 2 42805 86.3967 339.8898 0002052 82.5377 277.6051 14.34217479465037 IRIDIUM 115 1 42806U 17039D 26125.34144525 .00000342 00000+0 95710-4 0 9998 2 42806 86.4503 340.0066 0002440 83.9977 276.1502 14.43281838468081 IRIDIUM 118 1 42807U 17039E 26125.40591334 .00000036 00000+0 56823-5 0 9993 2 42807 86.4003 11.5158 0002092 86.1873 273.9562 14.34217434463810 IRIDIUM 117 1 42808U 17039F 26125.42494167 .00000059 00000+0 14116-4 0 9995 2 42808 86.4005 11.4662 0002306 86.0202 274.1258 14.34217878463845 IRIDIUM 126 1 42809U 17039G 26125.38054382 .00000022 00000+0 67148-6 0 9997 2 42809 86.4006 11.5351 0002274 89.1689 270.9767 14.34217689463816 IRIDIUM 124 1 42810U 17039H 26124.99796399 .00000095 00000+0 22122-4 0 9997 2 42810 86.4454 308.4305 0002232 89.7529 270.3928 14.43282872468886 IRIDIUM 128 1 42811U 17039J 26125.51081919 .00000209 00000+0 67619-4 0 9999 2 42811 86.3993 42.9849 0002345 80.1733 279.9728 14.34217552463863 IRIDIUM 121 1 42812U 17039K 26125.39957025 .00000258 00000+0 85156-4 0 9996 2 42812 86.4007 11.5546 0002192 82.6997 277.4448 14.34221520463699 IRIDIUM 133 1 42955U 17061A 26125.47276314 .00000067 00000+0 16887-4 0 9996 2 42955 86.3997 43.1177 0002266 84.7806 275.3649 14.34217962448653 IRIDIUM 100 1 42956U 17061B 26125.25711469 .00000080 00000+0 21532-4 0 9996 2 42956 86.3992 43.1272 0002236 84.0713 276.0738 14.34218012448623 IRIDIUM 122 1 42957U 17061C 26125.29517064 .00000070 00000+0 18101-4 0 9993 2 42957 86.3993 43.1116 0002276 86.1989 273.9467 14.34217979448631 IRIDIUM 129 1 42958U 17061D 26125.52984580 .00000078 00000+0 20621-4 0 9999 2 42958 86.3993 43.0801 0002048 90.7890 269.3540 14.34218014448688 IRIDIUM 119 1 42959U 17061E 26125.49813350 .00000046 00000+0 94011-5 0 9992 2 42959 86.3996 43.0890 0002244 87.8952 272.2501 14.34217862448695 IRIDIUM 107 1 42960U 17061F 26125.51716168 .00000054 00000+0 12320-4 0 9997 2 42960 86.3993 43.1020 0002470 84.5673 275.5805 14.34217891448702 IRIDIUM 132 1 42961U 17061G 26125.52350358 .00000060 00000+0 14288-4 0 9996 2 42961 86.3993 43.0790 0002256 84.8642 275.2811 14.34218021448707 IRIDIUM 136 1 42962U 17061H 26125.48544250 .00000334 00000+0 11223-3 0 9997 2 42962 86.3995 43.1014 0002328 86.1554 273.9908 14.34220888448714 IRIDIUM 139 1 42963U 17061J 26125.49179082 .00000235 00000+0 76773-4 0 9998 2 42963 86.3994 43.1601 0002325 82.3338 277.8122 14.34217030448728 IRIDIUM 125 1 42964U 17061K 26125.47910589 .00000006 00000+0 -48671-5 0 9996 2 42964 86.3993 43.2256 0002470 94.0041 266.1437 14.34217656448732 IRIDIUM 135 1 43070U 17083A 26125.10438837 .00000054 00000+0 12069-4 0 9993 2 43070 86.3974 340.0343 0002148 87.1172 273.0270 14.34217977437977 IRIDIUM 138 1 43071U 17083B 26125.47860164 .00000001 00000+0 -65842-5 0 9997 2 43071 86.3984 339.5665 0002053 95.8788 264.2642 14.34217476438018 IRIDIUM 116 1 43072U 17083C 26125.02829601 .00000247 00000+0 81307-4 0 9994 2 43072 86.3973 340.0526 0002242 78.2993 281.8455 14.34219248437984 IRIDIUM 130 1 43073U 17083D 26125.34540758 .00000031 00000+0 40792-5 0 9998 2 43073 86.3981 340.1910 0002356 83.1915 276.9549 14.34217783437977 IRIDIUM 151 1 43074U 17083E 26125.32003653 -.00000019 00000+0 -13791-4 0 9991 2 43074 86.3972 339.9871 0002007 85.3084 274.8341 14.34217413437993 IRIDIUM 134 1 43075U 17083F 26125.35809244 .00000000 00000+0 -69946-5 0 9998 2 43075 86.3975 339.9786 0002164 86.0932 274.0511 14.34217495437964 IRIDIUM 137 1 43076U 17083G 26125.02193404 .00000041 00000+0 75536-5 0 9993 2 43076 86.3976 340.2112 0001871 75.1050 285.0353 14.34217864437986 IRIDIUM 141 1 43077U 17083H 26125.08536042 .00000175 00000+0 55534-4 0 9992 2 43077 86.3972 340.0179 0002102 89.1908 270.9529 14.34218285437996 IRIDIUM 153 1 43078U 17083J 26125.45614987 .00000035 00000+0 53315-5 0 9990 2 43078 86.3932 308.3490 0002250 94.9943 265.1509 14.34217915439156 IRIDIUM 131 1 43079U 17083K 26125.35174937 .00000014 00000+0 -22014-5 0 9996 2 43079 86.3976 340.0893 0001978 88.1092 272.0331 14.34217594437961 IRIDIUM 144 1 43249U 18030A 26125.04388309 .00000061 00000+0 14623-4 0 9991 2 43249 86.3930 308.4516 0002164 86.3519 273.7924 14.34218373423958 IRIDIUM 149 1 43250U 18030B 26125.05022523 .00000060 00000+0 14486-4 0 9993 2 43250 86.3929 308.4164 0002109 92.0927 268.0510 14.34218445423973 IRIDIUM 157 1 43251U 18030C 26125.41809448 .00000001 00000+0 -66241-5 0 9996 2 43251 86.3929 308.3147 0002040 89.7493 270.3937 14.34217567424007 IRIDIUM 140 1 43252U 18030D 26125.43712321 .00000190 00000+0 60898-4 0 9991 2 43252 86.3930 308.3193 0002229 89.3540 270.7911 14.34217583424069 IRIDIUM 145 1 43253U 18030E 26125.49420544 -.00000014 00000+0 -11946-4 0 9998 2 43253 86.3929 308.2680 0002104 80.9342 279.2092 14.34217538424005 IRIDIUM 146 1 43254U 18030F 26125.47517738 .00000008 00000+0 -43197-5 0 9995 2 43254 86.3927 308.2882 0002042 86.1522 273.9907 14.34217702424017 IRIDIUM 148 1 43255U 18030G 26125.44348042 .00000068 00000+0 17216-4 0 9990 2 43255 86.3932 308.3439 0002033 88.7638 271.3790 14.34218745424042 IRIDIUM 142 1 43256U 18030H 26125.41176900 .00000071 00000+0 18365-4 0 9990 2 43256 86.3929 308.2478 0002189 84.2871 275.8574 14.34218521424000 IRIDIUM 150 1 43257U 18030J 26125.44980802 .00000000 00000+0 -69023-5 0 9999 2 43257 86.3928 308.3468 0002068 88.6711 271.4722 14.34217332424036 IRIDIUM 143 1 43258U 18030K 26125.50054772 .00000063 00000+0 15449-4 0 9995 2 43258 86.3935 308.4165 0002198 86.0794 274.0653 14.34218263423975 IRIDIUM 161 1 43478U 18047C 26125.46119812 .00000206 00000+0 55345-4 0 9997 2 43478 86.4452 106.3379 0002119 93.2881 266.8562 14.43280329418970 IRIDIUM 152 1 43479U 18047D 26125.47326573 .00000066 00000+0 16466-4 0 9998 2 43479 86.3927 106.1935 0002251 91.0868 269.0586 14.34218117416369 IRIDIUM 147 1 43480U 18047E 26125.40983786 .00000172 00000+0 54284-4 0 9996 2 43480 86.3933 106.2272 0002670 92.3460 267.8042 14.34212357416352 IRIDIUM 110 1 43481U 18047F 26125.41618336 -.00000016 00000+0 -12882-4 0 9991 2 43481 86.3928 106.3126 0002002 97.7514 262.3909 14.34217206416343 IRIDIUM 162 1 43482U 18047G 26125.38556436 .00000082 00000+0 18447-4 0 9994 2 43482 86.4452 106.2608 0002465 90.8370 269.3114 14.43279233418950 IRIDIUM 160 1 43569U 18061A 26125.36201705 .00000281 00000+0 93223-4 0 9996 2 43569 86.3952 74.6996 0002169 86.8303 273.3141 14.34219179407237 IRIDIUM 166 1 43570U 18061B 26125.38739382 .00000194 00000+0 62136-4 0 9999 2 43570 86.3951 74.6400 0002289 82.4028 277.7427 14.34221766407260 IRIDIUM 158 1 43571U 18061C 26125.35567725 .00000056 00000+0 13034-4 0 9997 2 43571 86.3950 74.6632 0002347 88.1173 272.0292 14.34217815407220 IRIDIUM 165 1 43572U 18061D 26125.38104707 .00000050 00000+0 10668-4 0 9992 2 43572 86.3954 74.6983 0002246 82.1801 277.9649 14.34217866407253 IRIDIUM 155 1 43573U 18061E 26125.41276088 .00000036 00000+0 58016-5 0 9993 2 43573 86.3949 74.5559 0002396 85.9580 274.1889 14.34217679407221 IRIDIUM 154 1 43574U 18061F 26125.39373255 .00000001 00000+0 -65757-5 0 9998 2 43574 86.3953 74.6957 0002113 81.0619 279.0816 14.34217428407278 IRIDIUM 163 1 43575U 18061G 26125.37470499 .00000062 00000+0 15047-4 0 9997 2 43575 86.3951 74.6201 0002254 88.4647 271.6807 14.34217287407245 IRIDIUM 156 1 43576U 18061H 26125.34933332 .00000128 00000+0 38671-4 0 9996 2 43576 86.3952 74.6380 0002422 84.1545 275.9927 14.34218686407235 IRIDIUM 164 1 43577U 18061J 26125.40007370 .00000240 00000+0 78669-4 0 9994 2 43577 86.3948 74.6570 0002104 81.3885 278.7549 14.34215304407285 IRIDIUM 159 1 43578U 18061K 26125.36836194 .00000013 00000+0 -25902-5 0 9996 2 43578 86.3949 74.6075 0002063 87.9963 272.1469 14.34217707407244 IRIDIUM 180 1 43922U 19002A 26125.43762619 .00000091 00000+0 25393-4 0 9991 2 43922 86.4006 11.4653 0002083 87.4279 272.7155 14.34218011382867 IRIDIUM 176 1 43923U 19002B 26125.13543761 .00000694 00000+0 10622-3 0 9991 2 43923 86.6124 11.5413 0002339 80.6302 279.5180 14.72252763392916 IRIDIUM 168 1 43924U 19002C 26125.43128387 .00000177 00000+0 56191-4 0 9996 2 43924 86.4009 11.5439 0002201 85.2863 274.8584 14.34217674382843 IRIDIUM 173 1 43925U 19002D 26125.41859888 .00000074 00000+0 19196-4 0 9992 2 43925 86.4006 11.4401 0002235 87.5622 272.5830 14.34218061382822 IRIDIUM 169 1 43926U 19002E 26125.47544425 .00000361 00000+0 11135-3 0 9990 2 43926 86.4249 43.0424 0002893 86.4231 273.7298 14.38609974384084 IRIDIUM 172 1 43927U 19002F 26125.41225463 .00000076 00000+0 20165-4 0 9990 2 43927 86.4006 11.4504 0002104 86.9625 273.1812 14.34216983382838 IRIDIUM 175 1 43928U 19002G 26125.43889319 .00000105 00000+0 25128-4 0 9996 2 43928 86.4483 308.4024 0004056 37.9646 322.1840 14.43592022392817 IRIDIUM 171 1 43929U 19002H 26125.39322853 .00000046 00000+0 95135-5 0 9997 2 43929 86.4013 11.7597 0002234 82.2671 277.8778 14.34217918382827 IRIDIUM 170 1 43930U 19002J 26125.41348235 .00000825 00000+0 12688-3 0 9999 2 43930 86.6126 11.4279 0002288 87.4700 272.6779 14.72252486392960 IRIDIUM 167 1 43931U 19002K 26125.38688612 .00000017 00000+0 -85192-6 0 9999 2 43931 86.4005 11.4828 0002298 78.7054 281.4400 14.34217716382829 IRIDIUM 181 1 56726U 23068S 26125.26088921 .00000354 00000+0 99225-4 0 9999 2 56726 86.4490 74.7307 0002017 83.1202 277.0228 14.43312503156245 IRIDIUM 177 1 56727U 23068T 26125.32796038 .00001110 00000+0 14252-3 0 9999 2 56727 86.1979 349.1514 0002402 92.4375 267.7121 14.80254513160022 IRIDIUM 174 1 56728U 23068U 26125.12924186 .00000746 00000+0 11442-3 0 9997 2 56728 86.6134 11.6896 0002400 89.6123 270.5370 14.72258989159682 IRIDIUM 178 1 56729U 23068V 26125.51984824 .00001252 00000+0 16130-3 0 9998 2 56729 86.6562 43.1836 0002275 81.3722 278.7757 14.80245029160058 IRIDIUM 179 1 56730U 23068W 26125.51448517 .00001171 00000+0 15060-3 0 9995 2 56730 86.6793 52.0391 0002636 79.2573 280.8945 14.80242551160052